Wind_Speed
16 14 11 10 12 13 12 11 13 20 23 24 22 15 14 14 12 11 9 8 8 8 9 11 11 12 12 12 12 11 10 9 7 6 4 3 2 2 2 3 3 4 5 5 5 5 5 5 4 4 4 4 4 5 5 5 5 5 6 6 7 8 9 9 10 11 12 12 13 13 13 14 14 15 16 17 18 18 18 18 18 18 18 18 18
13 13 11 11 12 11 11 11 14 19 22 22 18 13 16 17 15 15 13 12 11 10 11 12 12 13 12 12 11 10 10 9 8 7 5 4 3 2 3 3 4 5 6 6 7 8 8 9 9 8 8 8 8 8 8 8 8 8 9 9 10 11 12 12 13 13 14 15 15 16 16 16 16 16 17 18 18 19 20 20 20 20 20 21 21
12 12 11 11 11 11 11 11 12 15 18 20 18 16 18 19 18 18 17 15 15 14 14 14 13 13 13 12 12 11 11 10 9 8 6 5 5 5 5 6 6 7 7 8 8 9 10 11 11 11 12 12 13 13 13 12 12 12 12 13 13 14 15 15 16 16 17 18 18 18 19 19 18 19 19 19 20 20 21 21 22 22 22 22 23
12 12 12 12 12 12 12 11 10 10 13 18 20 19 21 22 22 21 20 19 19 18 17 16 15 14 13 12 11 11 10 10 9 9 8 7 7 7 7 7 8 9 9 10 10 11 12 12 13 13 14 15 16 16 16 16 15 15 15 15 15 16 17 17 18 19 19 19 20 20 21 21 21 21 21 21 21 21 22 22 22 22 23 24 24
13 13 13 13 13 14 14 12 10 8 11 17 21 22 23 25 25 25 23 23 22 22 21 20 19 17 15 14 13 12 12 12 12 12 11 10 8 7 8 9 10 11 12 13 14 14 15 15 15 16 16 17 18 18 19 19 18 19 19 19 18 18 19 19 19 20 20 21 22 22 23 24 24 24 23 23 23 23 23 23 23 23 23 24 25
15 14 15 15 16 16 16 14 11 9 10 16 22 24 26 26 26 27 28 27 26 25 24 22 21 20 19 18 16 15 15 14 14 13 13 13 12 10 10 11 13 14 15 17 18 19 19 18 18 18 19 19 20 20 21 21 22 23 24 23 22 22 22 22 22 22 23 23 23 24 25 25 26 26 26 26 25 24 24 23 24 24 24 24 25
17 17 17 18 18 18 17 15 12 11 12 16 21 25 27 28 29 30 32 33 31 29 27 25 23 21 20 20 18 16 16 15 15 15 16 16 16 15 15 15 16 18 19 20 22 22 23 23 23 21 20 20 21 22 22 23 24 25 26 25 25 26 26 26 25 25 25 25 25 26 27 28 28 28 29 29 28 28 27 25 24 24 25 25 25
20 19 19 19 20 19 17 15 14 14 15 16 21 25 27 29 31 33 36 37 35 31 31 30 27 24 23 23 20 19 19 19 19 20 19 18 18 19 19 17 18 21 23 24 25 26 26 24 22 20 19 19 20 21 22 23 24 25 26 27 27 28 29 30 30 29 29 29 29 29 29 30 31 31 31 31 31 31 31 30 28 27 26 27 27
20 20 20 20 20 19 18 17 17 18 19 20 22 25 28 30 31 32 36 40 39 35 34 34 31 26 25 24 21 19 20 21 22 22 19 18 19 20 21 19 18 20 23 25 26 28 27 24 19 18 20 20 21 22 23 25 27 28 29 30 29 30 31 32 33 34 34 34 33 33 32 31 31 31 32 32 33 33 33 34 33 32 31 29 29
19 19 20 20 20 20 19 19 19 20 21 22 24 26 28 30 31 32 34 37 39 38 38 38 33 26 25 26 23 20 20 21 22 21 19 19 20 21 23 21 19 20 21 21 23 25 26 24 21 20 22 23 25 26 28 30 31 32 32 33 33 33 33 33 35 36 37 37 37 36 35 33 32 33 33 34 35 36 36 36 36 36 36 34 32
18 19 19 20 21 21 20 21 21 20 21 22 23 25 26 28 31 32 32 33 35 36 38 39 35 28 28 31 27 22 21 21 21 20 19 20 21 22 22 20 18 17 17 17 18 21 23 23 24 24 26 27 29 31 32 33 34 33 34 35 35 36 35 35 35 37 38 38 38 38 37 35 35 35 35 36 36 37 38 38 39 38 39 39 36
18 18 19 20 21 22 22 22 22 21 20 20 21 21 22 24 26 26 25 26 28 28 30 33 32 29 31 32 26 20 18 19 19 19 19 20 21 21 19 17 16 16 16 16 17 19 20 22 24 25 27 28 30 32 33 34 34 35 36 36 36 36 36 36 37 38 39 39 38 38 38 37 37 37 36 37 37 38 39 39 40 40 40 40 40
19 19 19 19 20 21 21 21 21 20 20 20 20 20 20 20 21 20 19 19 19 20 24 27 27 26 26 23 19 16 17 19 19 19 19 19 19 18 16 15 15 16 17 17 18 19 20 21 23 24 25 27 28 30 32 33 34 36 37 36 36 36 36 38 38 38 37 37 37 37 37 38 38 38 38 39 39 40 40 40 40 41 41 41 41
21 20 20 19 19 20 20 20 21 21 21 21 21 20 20 20 19 19 18 16 15 17 20 22 23 22 20 17 17 18 19 19 18 18 19 19 18 17 17 17 18 19 19 20 21 22 23 24 25 26 27 28 29 30 32 33 33 34 35 35 34 35 36 36 37 36 36 37 37 38 38 39 40 40 40 41 42 43 43 42 42 42 42 42 41
25 23 22 21 21 21 21 22 22 23 23 23 22 21 21 21 20 19 17 16 15 16 17 18 19 19 18 17 18 18 18 17 17 18 19 20 19 20 20 22 23 24 25 25 25 26 26 26 27 27 28 29 29 30 30 31 31 32 32 32 33 33 34 34 35 35 36 38 39 41 42 42 43 43 42 43 44 45 45 45 44 44 44 44 42
30 27 25 24 23 23 24 24 25 25 24 24 23 23 23 22 21 19 18 17 17 16 17 17 17 17 18 18 18 19 18 18 19 20 21 21 22 23 25 26 27 27 28 27 27 27 27 27 28 28 29 29 29 29 30 30 30 31 31 32 33 33 33 34 35 36 38 39 41 42 43 44 44 44 44 45 45 46 46 46 46 46 47 46 44
32 29 27 26 25 25 25 26 26 27 26 25 24 24 24 23 21 19 18 18 18 18 18 18 18 19 19 19 19 19 19 19 20 21 22 23 24 25 26 26 27 27 28 28 28 29 29 28 28 28 29 29 29 30 30 31 31 32 33 34 35 35 36 36 37 38 39 40 41 41 42 42 43 44 45 46 46 47 47 47 47 47 48 48 47
30 28 26 27 27 26 26 27 26 26 26 25 25 25 25 23 21 20 19 20 20 19 19 19 20 20 20 20 20 20 20 20 21 21 23 24 24 25 26 27 27 28 28 29 29 29 29 29 29 28 29 30 30 31 32 33 33 34 35 36 37 38 38 39 39 40 41 41 42 42 43 43 44 44 45 46 46 47 48 48 48 48 48 48 48
29 29 29 29 28 27 27 28 27 26 25 25 25 24 24 23 23 22 22 21 21 21 21 21 21 21 22 21 21 22 22 22 22 23 24 25 26 26 27 27 28 29 30 30 31 31 31 31 31 31 31 32 33 33 34 35 35 36 37 37 38 39 39 40 41 41 42 43 43 44 45 45 45 46 46 46 46 46 47 48 48 48 49 48 48
29 29 28 29 29 28 28 28 27 25 24 24 24 24 24 24 24 24 24 23 23 23 23 23 23 23 23 23 24 24 24 25 25 26 26 26 26 27 27 28 29 30 31 32 32 32 32 32 33 33 33 34 34 34 35 35 36 37 37 38 38 39 40 40 41 42 43 44 44 44 44 45 45 45 45 45 45 45 45 46 46 47 48 48 48
30 29 28 27 28 29 29 29 28 28 28 27 26 26 26 26 26 26 25 24 24 25 25 26 26 26 26 27 27 27 28 28 28 28 28 27 27 28 29 30 31 31 32 32 32 32 32 32 33 33 33 34 34 35 35 36 36 37 38 39 39 40 41 42 42 43 43 44 44 43 43 44 44 44 44 44 44 44 44 44 44 45 46 47 47
32 31 29 29 28 29 30 30 29 29 31 32 31 29 28 27 27 27 27 27 27 28 29 29 29 29 30 30 30 30 30 30 30 30 29 29 29 30 31 32 33 33 33 33 33 33 33 33 33 33 34 34 35 36 37 37 38 39 40 40 41 41 42 43 43 43 44 44 43 43 43 43 43 43 43 43 43 43 43 44 44 45 45 46 47
34 34 32 32 32 31 30 30 29 29 30 33 34 32 30 30 30 30 30 30 30 31 31 31 31 31 31 31 31 31 31 31 31 31 31 31 32 33 34 35 35 35 35 35 35 35 35 35 35 35 36 37 38 39 39 39 40 40 41 41 42 42 42 42 42 43 43 43 43 42 42 42 42 42 43 43 43 43 44 44 44 45 45 46 46
37 36 35 35 35 35 34 33 32 32 32 35 36 36 35 35 35 33 31 30 32 34 35 33 32 32 31 30 30 30 31 31 31 31 32 33 35 36 36 37 37 36 36 36 36 37 37 37 37 38 38 39 40 42 43 43 43 43 43 43 42 42 41 42 42 42 42 42 42 42 42 42 43 43 43 43 43 43 44 44 45 45 46 46 47
42 40 39 38 37 37 37 36 35 35 35 37 38 37 36 36 34 31 28 28 31 34 36 36 36 35 33 32 31 30 30 31 31 32 33 34 36 37 38 38 38 37 37 37 37 37 37 38 38 39 39 41 42 42 42 43 43 43 42 41 41 40 41 41 41 41 40 41 41 41 42 42 42 43 43 43 43 44 44 45 45 46 46 47 48
46 44 42 41 40 39 40 39 39 37 37 37 37 35 34 35 34 32 29 28 29 32 35 36 36 35 33 32 31 31 31 31 32 33 33 34 35 36 37 38 37 36 35 36 36 36 36 37 38 38 39 39 39 39 39 40 40 40 39 39 39 39 39 39 39 38 39 40 40 41 41 41 41 42 42 43 44 44 45 46 47 47 48 49 49
48 48 46 45 43 42 42 42 42 41 40 39 38 36 35 35 35 33 31 30 31 32 33 31 31 30 30 29 29 30 31 32 33 33 33 34 35 35 35 35 35 33 32 33 33 34 35 37 37 37 37 36 37 38 39 39 38 37 37 37 36 36 36 36 36 37 38 38 39 39 40 40 41 42 42 44 45 45 47 48 48 48 49 49 49
47 48 48 48 47 46 45 44 44 44 43 42 41 40 39 38 37 35 34 32 31 31 31 31 30 30 28 27 27 28 30 31 32 32 32 33 34 35 34 34 33 32 33 33 35 36 37 37 36 35 36 36 38 38 38 37 35 34 34 33 32 32 32 33 34 35 36 37 38 38 39 40 42 43 44 44 45 45 46 46 47 47 47 47 46
45 46 47 47 48 48 48 48 45 43 43 44 44 44 43 41 39 37 35 33 33 33 33 32 31 29 27 27 28 29 29 30 31 32 32 33 34 35 36 36 35 36 36 37 37 36 35 35 35 35 36 37 36 35 34 32 31 30 29 29 29 29 30 31 32 34 35 36 38 39 40 42 42 43 44 44 44 43 43 44 44 44 43 43 41
46 46 46 45 45 47 49 51 50 47 45 44 44 46 46 43 40 37 35 33 33 34 33 33 31 29 29 30 31 31 29 29 31 31 32 33 34 35 36 36 36 36 35 34 33 33 33 34 34 34 35 34 32 30 27 26 25 25 25 26 27 28 29 31 32 33 35 36 38 39 41 42 42 42 42 42 42 41 41 40 40 39 37 35 31
47 47 47 46 45 44 45 48 50 51 50 47 45 45 46 44 41 39 38 36 36 37 36 35 34 33 32 33 33 32 30 30 30 30 31 31 32 33 34 34 34 33 32 31 30 30 30 31 31 31 30 28 25 23 22 22 22 23 24 25 26 28 29 30 31 33 34 36 37 38 39 40 41 41 40 40 40 38 36 34 33 31 28 25 22
48 47 46 46 46 45 44 44 46 47 49 50 49 48 47 45 43 40 38 36 36 37 36 35 35 36 37 38 38 35 32 30 29 29 29 29 30 30 30 30 29 29 29 28 28 27 27 27 26 25 23 21 19 19 20 20 21 22 23 24 25 27 28 29 30 32 34 35 36 36 37 38 38 38 37 36 35 32 29 26 24 23 21 19 19
48 48 47 46 46 46 44 44 44 43 43 44 45 45 45 44 42 38 32 30 30 31 31 33 36 37 38 39 39 36 33 30 29 28 28 28 28 28 27 27 26 26 26 26 26 25 25 24 22 20 18 17 17 18 19 20 20 21 22 23 23 25 27 28 30 31 33 33 34 34 35 36 36 35 33 30 28 25 22 19 18 18 17 17 18
47 47 47 46 45 45 44 43 43 43 42 40 39 39 40 39 38 36 33 31 30 29 29 31 33 34 35 36 35 33 31 29 28 28 28 27 27 26 25 25 25 25 25 25 25 24 22 20 19 18 17 17 18 18 19 19 20 20 20 21 23 24 26 28 29 29 30 31 32 34 34 34 34 32 28 24 21 19 16 15 15 16 17 18 19
46 46 46 46 45 45 43 42 42 43 43 41 40 39 38 38 38 38 38 37 35 33 31 29 27 28 29 29 28 26 26 26 27 28 27 26 25 25 24 23 24 24 24 24 23 21 18 18 18 18 17 17 17 17 17 18 18 18 19 21 22 24 25 26 26 27 28 30 32 33 33 32 31 28 24 20 17 15 14 14 15 17 20 21 21
42 44 45 44 45 45 44 42 41 42 42 42 42 41 39 39 38 38 37 36 35 33 32 30 29 28 27 26 25 25 25 26 27 27 26 24 23 22 22 22 22 22 22 21 19 17 16 17 18 18 17 17 16 16 15 16 16 18 19 20 21 22 23 24 25 26 29 31 32 33 33 31 28 25 21 18 15 13 13 14 16 19 22 22 20
33 37 41 43 43 43 44 43 41 39 40 40 41 41 41 40 39 38 36 35 33 31 30 31 31 31 29 28 28 28 28 28 27 25 24 22 21 20 20 20 20 20 19 17 16 16 17 18 18 17 16 15 14 13 14 14 15 17 18 19 20 21 22 23 25 27 29 31 33 33 32 30 27 23 20 17 14 13 13 14 17 21 22 21 20
24 28 33 38 41 41 42 42 41 38 38 37 37 38 38 39 40 39 38 36 34 33 32 32 32 31 30 30 29 28 29 29 27 24 22 21 20 19 19 19 18 17 16 15 15 16 17 17 17 16 14 12 12 12 13 14 15 15 16 17 19 20 21 23 24 27 29 31 32 33 32 29 25 22 19 17 15 14 14 16 18 20 21 20 20
16 20 25 31 36 38 39 40 39 38 36 35 35 34 34 34 35 37 37 37 36 35 35 34 33 31 30 29 28 28 28 27 25 22 20 19 19 19 18 17 16 16 16 16 16 16 16 16 14 12 10 10 10 11 12 13 13 14 14 15 17 18 20 22 23 25 28 30 31 32 31 29 25 21 19 18 16 16 17 18 19 20 20 20 20
11 13 17 23 29 34 35 36 37 36 35 34 33 32 32 30 29 30 31 34 35 36 35 34 33 31 29 27 26 27 26 24 22 20 18 18 19 18 16 16 16 16 16 16 16 16 15 13 10 8 8 9 9 9 10 11 11 12 13 15 16 18 19 21 23 24 27 29 30 31 30 28 24 21 19 18 18 18 19 19 19 20 20 20 19
8 9 12 16 21 27 30 32 34 34 34 33 32 32 30 28 26 25 26 28 31 32 33 32 29 27 26 24 23 23 23 21 19 17 18 19 18 16 15 15 16 17 17 16 15 14 12 8 6 7 8 8 7 7 8 9 9 11 13 15 16 18 19 20 22 23 25 28 30 30 29 27 24 21 19 19 19 19 20 20 20 20 20 19 18
3 3 5 9 14 19 23 26 29 30 31 31 31 30 28 26 24 24 24 26 27 28 29 30 29 24 22 22 23 22 21 18 17 18 19 19 17 15 15 16 17 17 16 15 13 10 7 5 6 8 8 6 5 6 7 8 9 11 13 14 16 17 18 20 21 22 24 26 28 29 29 27 25 22 20 19 19 20 20 20 20 20 19 18 17
6 4 4 6 9 13 16 19 22 24 26 26 26 26 25 24 24 24 24 24 23 22 21 23 24 20 17 19 21 20 19 19 19 19 18 17 15 15 16 16 16 15 14 12 9 5 4 5 8 8 6 4 5 5 6 7 9 11 12 14 16 17 18 20 21 22 23 24 26 28 27 26 25 22 20 18 18 18 19 19 18 18 17 16 16
10 8 8 8 8 10 11 13 16 18 20 20 20 21 21 21 22 24 23 22 22 20 17 17 18 17 16 17 19 20 21 22 21 17 15 15 14 14 13 13 13 12 11 8 5 3 5 8 8 6 4 4 5 5 6 7 9 11 12 14 16 18 19 20 21 22 23 23 25 26 27 26 25 23 21 18 18 18 18 18 18 17 15 15 15
13 12 12 11 11 11 11 11 12 13 14 16 17 18 18 18 19 21 21 21 21 20 18 17 17 16 16 17 20 22 23 21 18 16 14 13 12 11 11 11 11 10 8 5 4 5 8 8 6 3 3 4 5 5 7 8 10 12 13 15 16 18 19 20 21 22 23 23 24 25 26 26 26 25 23 20 19 18 18 18 19 17 15 14 14
16 15 14 13 13 12 12 11 12 12 13 14 15 16 17 17 16 16 18 19 20 19 17 17 16 16 17 19 21 21 19 18 16 15 13 12 11 11 11 10 9 8 6 5 6 8 8 6 3 2 3 5 6 7 8 10 11 13 14 16 18 19 20 21 22 22 23 24 24 25 26 27 27 26 26 24 22 19 18 18 18 18 17 15 13
18 17 16 15 14 13 13 12 12 12 11 12 13 15 16 16 15 14 15 15 15 15 16 17 19 20 21 21 19 17 16 15 14 13 12 11 11 11 11 10 8 7 6 7 8 8 5 3 2 3 4 5 6 8 9 10 12 13 15 17 18 19 20 21 22 22 23 24 25 25 26 27 27 27 26 25 24 22 20 19 18 18 17 15 14
18 17 16 16 15 14 13 13 12 11 11 11 11 13 14 14 14 14 15 15 16 18 20 21 22 21 20 18 16 15 14 13 12 12 12 11 11 11 10 9 8 7 7 8 8 6 3 2 2 3 5 6 7 8 10 11 12 14 15 16 18 20 21 21 22 22 23 24 25 25 25 26 27 27 26 26 25 24 22 20 19 18 17 16 15
23 21 19 18 17 15 14 13 12 12 12 12 13 14 15 16 17 18 19 21 22 23 22 21 19 18 17 16 15 14 13 13 12 12 11 10 10 10 10 9 8 8 7 6 5 4 2 2 3 4 6 7 9 9 10 11 12 13 14 16 17 19 21 22 22 23 23 24 25 26 25 25 26 27 27 26 25 24 23 22 20 19 18 16 15
26 25 24 23 22 21 21 20 19 19 19 19 19 20 21 21 21 21 21 21 20 19 18 17 16 15 14 13 13 12 13 13 12 11 10 9 10 10 9 9 8 7 5 4 4 3 2 3 4 5 6 8 9 10 11 11 12 13 14 15 16 18 19 21 22 23 23 24 24 25 25 26 26 26 27 27 26 24 23 22 21 19 18 17 15
22 22 22 22 22 22 21 21 20 20 20 20 20 19 19 19 18 18 17 17 16 16 15 14 14 13 12 11 11 11 12 11 10 9 9 9 9 9 9 8 7 5 4 4 3 3 3 4 5 6 7 8 9 11 11 12 12 13 14 15 16 17 18 20 21 23 23 24 24 25 25 26 26 26 26 27 26 25 23 22 21 20 19 17 15
Wind_Direction
301 303 305 288 280 286 283 270 257 255 248 245 253 243 206 202 199 189 189 181 168 158 151 149 145 145 146 145 145 143 141 139 137 134 125 114 95 56 24 3 353 346 344 341 335 332 326 318 310 301 290 278 268 259 256 260 265 271 280 287 294 298 300 305 307 307 307 308 307 306 304 303 302 301 300 300 300 299 298 297 296 295 293 290 286
304 306 302 290 285 281 274 264 254 256 254 249 248 227 203 207 208 198 193 191 190 187 180 175 168 164 163 163 164 163 163 164 166 171 174 179 196 228 264 282 289 292 297 299 299 302 303 303 302 300 297 291 286 281 277 278 280 283 288 289 291 293 293 294 296 298 299 300 301 301 301 301 300 299 298 298 298 298 298 297 296 295 294 293 291
299 299 294 290 289 284 279 274 264 259 254 245 236 221 212 215 216 208 201 200 202 202 200 196 189 185 182 182 184 183 181 181 182 187 196 206 218 230 243 256 262 266 270 274 277 280 282 284 287 289 292 293 292 291 289 289 289 289 289 289 288 288 288 288 289 291 293 295 296 296 296 296 295 295 295 294 294 294 295 295 296 295 295 293 292
289 287 283 279 281 284 284 284 276 259 243 237 231 222 216 218 221 218 210 208 210 210 210 207 204 203 201 201 202 200 196 194 194 198 204 210 223 238 249 259 266 269 272 274 275 276 276 278 279 281 284 286 289 290 290 289 290 291 291 291 290 288 287 286 286 286 288 290 293 294 295 295 294 293 292 291 291 290 291 292 293 294 295 294 293
278 274 271 267 269 276 277 276 274 257 233 229 227 223 220 221 226 226 220 216 216 216 215 213 209 208 208 211 212 211 210 208 208 213 217 218 223 238 254 266 271 275 278 279 279 278 278 279 281 283 284 284 284 284 284 285 288 292 293 293 294 294 293 291 290 289 289 290 293 295 296 296 294 293 292 291 290 289 289 290 292 293 294 294 294
271 266 262 258 260 267 269 268 267 259 238 228 227 226 225 227 231 231 227 222 222 223 223 221 217 213 212 213 212 213 216 218 221 225 230 234 233 233 244 257 265 271 275 277 278 279 280 281 282 283 284 285 285 284 283 285 287 290 291 293 295 296 296 295 294 294 293 293 293 294 295 295 294 293 293 293 292 289 287 286 287 290 291 291 292
272 266 261 255 255 258 261 261 259 258 247 235 231 230 230 232 233 231 229 227 225 225 227 227 223 221 223 222 217 217 222 227 231 234 237 243 245 243 242 248 258 266 270 272 274 276 278 280 281 282 282 283 284 285 285 285 286 287 289 292 294 295 295 295 295 294 293 292 293 293 294 294 293 293 293 294 294 293 290 286 282 282 284 285 285
273 269 263 257 253 251 252 252 252 254 252 244 240 236 234 236 234 231 232 232 229 226 228 229 226 225 229 230 225 222 225 229 233 238 240 245 253 257 256 254 257 263 268 271 273 275 276 275 274 275 276 276 279 283 285 287 287 288 290 292 294 295 296 296 296 296 294 293 293 294 295 295 294 294 294 294 295 294 293 290 287 283 281 280 280
268 269 266 261 255 248 245 244 244 246 246 245 245 243 242 244 243 239 238 238 235 232 232 232 229 226 228 233 233 230 230 233 237 244 248 250 256 263 266 265 264 267 271 273 273 273 274 273 268 265 267 270 275 280 284 288 290 290 292 293 294 295 296 297 298 298 298 298 298 299 299 298 296 296 296 296 296 296 294 293 291 288 285 282 279
261 265 266 263 257 251 248 248 248 247 245 245 247 248 246 249 251 250 249 248 243 238 237 237 235 233 237 240 239 235 238 244 248 253 257 256 256 260 263 265 266 269 272 274 273 271 271 269 267 266 268 271 275 279 282 286 288 289 290 291 292 293 294 295 297 297 298 299 300 301 302 303 300 299 298 298 298 298 297 295 293 291 290 287 283
253 257 261 260 257 255 253 253 253 253 250 249 251 253 251 251 253 255 256 256 253 248 247 243 237 236 241 241 238 238 244 248 249 251 254 255 256 257 258 259 261 263 266 267 269 268 267 265 265 268 270 273 277 280 282 285 286 286 287 289 290 291 292 293 294 295 296 297 300 302 303 304 302 300 300 299 299 298 297 296 295 293 292 291 288
249 250 253 254 252 253 253 253 254 255 254 252 250 252 252 252 253 253 250 250 249 247 243 238 232 232 238 240 242 246 246 243 243 246 250 252 253 253 253 252 252 255 259 261 263 264 265 266 267 269 271 273 275 278 280 282 285 286 287 288 289 290 291 291 291 293 295 297 301 303 303 303 302 301 300 300 299 297 296 294 293 292 291 290 290
246 244 246 248 249 250 252 253 253 254 255 255 253 252 251 247 244 242 237 236 235 229 225 225 227 233 239 242 243 241 237 236 241 246 247 247 247 248 252 254 255 259 262 264 266 267 269 271 273 274 275 275 276 277 279 282 284 285 286 288 288 289 290 290 292 294 297 299 301 302 302 302 302 302 302 301 300 299 297 295 293 292 290 289 288
244 242 243 246 249 252 254 254 253 252 252 253 253 252 248 242 236 234 232 228 223 219 219 224 228 231 236 238 232 229 231 236 240 242 242 243 245 251 258 261 263 266 267 268 270 273 274 275 276 276 277 277 278 279 280 282 283 284 286 287 288 289 290 293 296 299 300 300 301 301 301 301 301 302 302 301 300 300 299 297 296 293 291 290 289
252 246 244 246 248 251 255 255 253 250 248 247 247 246 243 238 235 234 232 228 221 217 219 225 226 226 227 226 223 224 227 231 234 236 239 244 250 257 263 266 270 272 274 275 276 276 276 275 275 276 277 278 279 279 280 281 282 284 285 286 288 290 292 295 297 299 299 299 300 301 301 301 302 302 301 300 299 299 298 297 296 295 293 292 290
258 248 243 245 247 247 250 251 249 247 244 241 239 237 235 234 234 235 235 233 230 226 224 225 225 225 223 221 220 222 224 228 233 239 244 250 257 262 267 270 273 276 277 278 278 277 277 277 277 278 279 279 280 280 281 282 283 285 286 288 290 292 293 295 295 295 296 297 298 299 300 301 302 301 301 300 299 298 297 296 295 294 293 292 291
259 248 241 240 240 241 244 246 245 241 238 234 230 227 228 230 234 237 240 240 239 237 234 232 231 230 228 225 225 227 230 236 242 247 253 258 262 265 268 271 273 274 276 277 277 277 278 278 278 278 279 279 281 282 283 285 286 287 289 290 292 293 294 295 295 295 296 296 297 297 298 298 299 299 299 299 299 298 297 296 295 294 293 291 290
269 263 256 248 240 236 238 241 241 237 232 228 225 223 226 230 235 239 242 243 242 242 240 237 234 233 232 231 233 237 242 246 250 253 256 260 262 266 269 272 274 275 276 276 277 277 277 278 278 278 279 280 281 282 284 286 287 289 290 291 292 293 294 295 296 296 297 297 298 298 299 299 299 300 300 300 300 299 298 297 297 296 295 294 292
275 272 269 263 251 240 234 235 236 234 232 230 229 229 232 235 239 241 241 241 241 241 240 239 237 235 235 236 239 242 245 247 249 253 257 261 265 269 272 275 277 278 278 279 279 279 279 279 280 280 281 281 282 283 284 285 286 287 288 289 291 292 294 295 296 296 298 299 299 300 301 301 302 302 302 301 301 300 299 298 297 296 295 295 294
271 269 266 263 256 247 239 235 234 235 238 239 238 238 237 237 236 236 235 236 237 238 238 238 238 238 238 238 239 241 242 245 249 254 259 264 268 271 274 277 278 279 280 280 280 280 280 280 280 281 281 281 282 282 283 284 285 286 287 288 290 291 292 293 295 296 298 298 299 299 299 300 300 301 301 300 299 298 297 297 296 296 295 295 294
270 269 268 265 260 254 249 245 241 239 241 242 240 238 236 234 232 230 230 231 233 234 234 235 236 236 237 238 240 242 244 248 252 256 260 264 267 271 274 276 276 277 279 280 281 281 281 280 280 280 280 281 281 281 282 283 284 285 286 287 288 289 290 292 294 295 296 297 297 296 297 298 299 299 299 298 298 297 297 296 296 296 295 295 295
271 271 271 270 267 261 258 256 252 247 244 243 242 240 236 231 227 226 229 232 233 234 234 234 234 235 237 239 241 244 248 251 254 257 260 263 268 271 274 274 273 274 277 279 280 280 280 280 280 280 281 282 283 283 284 285 286 286 287 287 288 289 291 293 294 295 295 295 295 295 296 298 298 298 297 297 296 296 296 296 295 295 294 294 294
266 267 267 268 267 264 261 259 258 254 247 243 242 241 237 232 231 233 235 234 234 235 237 237 237 237 238 241 243 246 250 252 254 257 261 264 268 271 272 272 272 274 276 277 278 278 279 279 280 281 283 284 286 286 287 287 287 287 287 288 289 291 292 293 294 294 294 294 294 295 297 297 297 296 296 295 295 295 295 294 294 293 293 293 292
260 260 260 261 262 262 260 258 257 255 249 245 243 241 239 237 236 237 238 237 235 236 239 240 242 242 243 245 246 248 251 253 256 259 262 266 269 270 271 271 272 273 274 275 276 276 278 279 281 282 283 284 285 287 287 288 287 288 289 290 290 291 292 293 293 293 293 293 294 295 295 295 295 295 295 295 294 294 294 293 293 293 292 292 291
257 256 255 255 255 257 257 255 255 255 255 253 249 245 243 241 237 235 238 240 240 241 242 244 246 247 247 248 250 253 256 258 260 263 265 267 269 270 272 272 272 272 272 272 273 275 277 278 280 281 283 284 286 287 287 288 288 289 290 291 291 292 291 291 291 292 292 292 293 293 293 293 294 295 295 295 295 294 294 294 293 294 294 293 292
252 252 251 251 251 251 252 252 251 251 253 255 253 247 245 244 240 239 244 248 249 248 246 246 247 248 251 253 256 258 260 263 265 267 268 269 270 271 272 273 273 272 270 270 271 273 275 277 279 281 283 284 285 287 288 289 291 292 292 292 291 291 291 291 291 291 291 291 292 292 293 294 294 295 295 295 296 297 297 297 297 297 296 295 294
250 248 246 246 246 246 248 250 251 250 250 251 251 248 246 243 241 244 250 254 257 256 254 254 257 260 264 266 266 265 265 267 269 270 269 269 269 269 270 272 272 270 268 267 269 273 276 278 279 280 281 283 284 287 289 291 292 292 292 291 291 291 291 291 291 290 291 292 293 294 295 295 296 297 297 298 300 300 300 300 299 298 297 296 295
252 249 246 243 242 241 242 243 245 247 249 250 251 250 249 245 245 250 254 257 260 262 263 266 271 272 272 272 272 271 271 271 271 270 269 267 266 265 267 268 268 266 266 269 273 276 278 278 278 278 280 282 285 288 290 291 291 290 291 291 291 290 290 290 291 293 294 295 296 297 298 299 300 300 301 301 301 301 301 300 300 299 298 297 297
254 252 250 246 242 240 239 238 237 236 238 243 247 250 250 247 246 247 249 249 253 257 261 266 268 269 269 271 275 277 275 272 269 268 266 264 263 262 263 265 266 267 270 273 276 277 277 277 278 279 281 284 286 289 290 290 289 290 290 291 291 292 293 294 295 296 297 298 299 301 301 302 302 303 303 303 303 303 303 302 301 300 299 299 300
254 253 252 250 247 243 241 240 239 237 235 236 239 243 245 244 243 244 244 245 248 252 258 262 264 265 267 272 277 278 275 269 266 264 263 263 263 263 264 266 268 271 274 276 277 277 277 278 279 282 284 287 289 289 289 289 290 291 292 293 295 296 297 297 297 298 299 301 303 303 304 304 305 305 305 305 305 304 304 302 301 300 299 300 302
255 253 251 250 249 246 243 242 242 242 241 240 239 240 240 240 238 239 241 243 246 249 252 255 259 263 268 274 278 278 274 268 265 264 263 264 265 266 267 269 271 273 275 277 278 279 280 282 284 286 288 289 289 288 288 290 292 293 295 297 297 297 296 297 299 301 303 304 305 305 306 307 307 307 306 305 304 304 303 301 299 299 299 301 303
253 252 251 250 249 247 245 243 241 242 243 244 244 244 245 245 243 239 238 240 244 247 248 251 256 262 266 271 276 276 272 269 268 268 268 269 270 272 272 272 272 274 276 277 279 282 285 288 289 289 288 287 286 288 291 292 294 295 296 295 295 296 298 300 303 304 305 306 307 308 309 308 308 307 306 305 304 303 302 299 298 298 300 302 305
251 250 250 248 247 246 245 243 240 239 240 242 244 245 247 249 249 247 241 239 242 245 248 252 257 260 262 266 269 270 269 269 270 272 274 275 277 277 276 274 273 274 275 276 279 284 289 290 288 285 285 286 289 292 294 295 295 295 294 294 295 299 302 304 306 307 308 310 312 313 313 312 310 309 308 307 305 302 301 301 303 305 306 306 307
251 250 248 246 245 244 243 242 240 238 237 238 240 243 244 246 247 246 244 241 243 246 248 249 251 253 257 260 263 264 264 266 270 274 277 278 279 279 276 273 273 274 274 275 278 283 286 284 282 282 286 290 292 293 294 294 294 294 296 299 301 303 305 307 308 310 313 315 317 318 317 316 314 312 310 307 302 300 303 310 314 314 310 308 308
252 250 248 246 243 241 240 240 238 236 235 235 235 238 241 243 244 245 244 244 246 248 246 243 242 245 249 254 259 262 264 266 271 275 278 278 278 277 274 273 273 274 273 274 276 278 276 275 278 284 289 291 292 293 293 292 294 297 301 303 303 305 307 310 312 316 321 323 324 323 322 320 317 314 312 308 302 302 312 320 321 317 314 312 312
254 249 246 245 242 239 237 237 236 235 235 235 235 235 237 239 241 244 245 245 246 247 246 246 248 251 254 258 265 270 273 274 275 275 275 275 273 272 272 273 274 274 273 271 270 268 268 273 280 285 288 289 290 290 291 294 299 302 302 302 305 309 313 316 320 326 329 329 328 327 326 324 321 318 315 309 304 307 318 322 321 320 320 320 319
255 250 245 242 241 238 235 234 235 235 235 235 234 234 235 237 238 240 242 244 246 247 248 251 254 257 260 263 266 269 271 273 273 272 271 269 267 266 270 273 272 269 266 262 261 263 269 276 280 282 284 285 286 289 295 300 302 301 301 305 311 317 322 325 330 333 334 333 333 332 331 329 325 322 319 313 306 306 310 312 316 322 325 325 321
255 251 245 239 237 236 234 232 233 234 235 234 234 233 234 236 237 238 239 240 242 245 248 251 254 258 261 262 262 263 265 267 268 267 265 263 260 262 267 268 262 256 252 252 257 264 270 274 276 277 280 283 288 295 301 301 299 300 305 312 319 324 328 332 335 336 336 337 337 336 335 333 330 326 323 318 312 307 305 308 315 323 325 322 318
256 251 245 237 232 232 231 230 229 231 232 233 233 233 234 235 237 238 238 238 240 242 246 249 253 257 258 257 256 257 259 262 262 261 258 256 256 259 259 253 246 244 246 252 262 269 271 271 272 275 281 287 293 298 299 297 298 305 313 321 327 331 334 336 337 338 339 341 341 339 338 336 333 329 325 322 317 312 310 312 316 320 320 317 315
264 249 241 235 230 228 227 227 227 228 230 232 233 234 234 235 238 239 239 239 240 242 244 248 251 252 251 250 251 252 254 256 257 254 250 248 249 249 244 238 238 245 253 261 268 270 268 267 272 280 286 289 293 295 295 298 306 316 324 331 337 339 339 339 339 340 343 345 345 343 342 340 336 330 325 320 316 314 313 313 313 316 317 314 312
276 249 235 229 225 223 223 223 223 225 228 230 232 233 235 236 237 238 238 238 238 238 239 239 238 238 240 241 243 246 248 250 249 242 235 235 236 236 236 239 245 254 262 267 267 264 262 268 281 284 282 284 289 293 299 309 322 329 334 339 343 344 344 343 342 342 346 349 349 347 345 343 340 334 328 323 320 318 316 315 315 317 318 314 310
323 259 219 216 216 217 218 220 220 222 225 227 230 233 235 234 232 231 232 234 236 239 238 229 221 221 230 235 236 241 244 239 227 219 219 223 226 230 237 245 251 257 262 262 258 256 263 279 281 274 273 280 291 300 313 328 337 340 342 345 347 348 349 347 345 345 348 352 353 351 348 347 345 340 333 329 327 323 321 321 321 321 321 317 311
71 95 138 175 194 202 208 213 215 217 219 221 224 227 228 227 226 225 227 229 233 236 235 224 216 218 230 235 235 237 232 216 205 207 217 223 228 234 241 246 250 253 254 251 250 255 272 271 264 263 268 285 298 312 331 344 347 347 347 348 351 354 354 351 349 349 350 353 355 354 352 351 351 347 340 335 334 331 329 330 330 328 325 321 315
88 100 114 131 151 169 184 196 202 207 211 213 215 218 221 222 223 224 225 224 223 223 224 223 224 229 237 235 229 220 209 201 200 210 223 229 232 236 239 241 241 242 241 240 244 258 257 253 254 260 276 294 304 322 344 354 355 353 352 353 357 359 357 355 354 354 353 353 356 357 357 357 358 356 351 344 341 340 340 341 341 338 332 327 322
83 91 101 113 124 133 146 161 173 184 193 196 200 206 208 210 217 226 227 220 214 215 221 226 230 234 235 226 212 199 193 195 205 219 227 227 227 228 229 230 231 232 233 236 245 246 243 244 249 264 287 300 314 332 351 2 1 355 353 357 1 1 359 358 358 358 356 356 357 359 360 1 2 2 360 356 351 349 348 348 348 345 340 333 329
77 87 95 104 113 120 130 143 155 165 176 183 188 192 193 195 205 217 214 202 199 208 220 224 222 217 210 202 194 189 190 201 213 219 219 216 215 218 220 222 223 225 228 233 237 236 236 240 257 288 302 315 327 339 352 2 0 355 354 358 1 2 0 360 0 0 360 359 359 1 2 4 5 5 4 2 358 354 351 350 351 350 345 339 331
74 82 89 95 102 109 116 125 133 141 150 162 170 176 181 186 191 196 193 188 193 203 208 203 196 190 187 187 190 193 198 203 207 207 206 208 212 216 216 216 219 224 226 228 230 232 234 250 290 309 319 328 335 343 351 356 356 355 356 357 358 359 359 359 360 1 2 2 3 3 4 6 7 7 6 4 2 358 354 352 353 352 349 344 336
75 81 87 93 97 102 108 115 122 130 139 150 161 171 180 188 192 192 189 185 184 184 183 181 182 182 183 186 189 191 191 193 195 200 205 209 211 212 211 213 218 221 220 224 230 235 242 272 307 328 338 340 342 346 348 350 353 354 355 355 355 355 356 357 359 2 4 5 5 5 5 7 8 8 7 6 4 1 358 356 354 352 351 349 344
72 77 83 89 94 99 105 111 118 127 137 145 154 161 166 169 170 168 166 164 165 168 171 175 178 179 178 177 176 176 180 187 195 201 205 206 206 206 208 210 212 212 214 224 235 242 254 294 327 345 350 349 349 350 349 349 349 349 351 354 354 352 351 353 357 0 3 6 6 5 5 8 9 9 8 6 5 3 1 359 358 355 354 353 350
66 71 76 81 86 89 94 99 105 110 114 120 125 129 133 135 137 139 143 148 154 159 163 165 166 166 166 166 169 175 184 192 196 196 194 195 198 201 203 205 207 208 214 228 243 258 289 322 338 348 351 351 353 353 352 350 347 345 347 352 352 350 349 351 354 357 1 4 5 4 5 8 10 11 10 8 6 4 3 2 2 1 358 357 355
63 67 71 76 81 84 86 90 94 99 103 108 112 116 119 122 126 130 136 141 146 149 152 155 158 161 164 168 175 183 190 192 189 183 181 185 190 193 195 200 206 211 224 244 262 286 313 328 335 341 345 347 350 352 353 351 347 345 345 347 349 349 349 350 352 355 357 0 2 3 5 7 8 10 11 11 9 6 4 4 6 7 5 2 360
Height
3116 3117 3118 3119 3119 3119 3119 3119 3119 3120 3120 3121 3124 3127 3129 3130 3130 3131 3132 3133 3133 3132 3132 3132 3132 3133 3133 3134 3135 3136 3137 3138 3139 3140 3141 3142 3142 3143 3143 3143 3143 3143 3143 3143 3143 3143 3143 3144 3144 3144 3144 3144 3143 3143 3143 3143 3143 3143 3143 3143 3143 3143 3142 3142 3141 3141 3141 3140 3140 3140 3140 3139 3139 3139 3138 3137 3136 3135 3135 3134 3133 3133 3132 3131 3131
3114 3115 3117 3117 3117 3117 3117 3117 3118 3118 3118 3120 3123 3126 3127 3128 3129 3129 3130 3131 3132 3132 3132 3132 3132 3132 3133 3133 3134 3134 3135 3136 3137 3138 3139 3140 3141 3142 3143 3143 3143 3143 3143 3143 3142 3143 3143 3143 3143 3143 3143 3143 3142 3142 3142 3142 3142 3142 3142 3142 3142 3142 3141 3141 3141 3140 3140 3139 3139 3139 3138 3138 3138 3137 3137 3136 3135 3134 3133 3132 3132 3131 3130 3129 3128
3113 3114 3115 3115 3115 3115 3116 3117 3117 3117 3117 3118 3121 3124 3126 3127 3128 3129 3129 3129 3130 3130 3131 3131 3132 3132 3133 3133 3133 3134 3134 3134 3135 3136 3138 3139 3139 3140 3141 3141 3141 3141 3142 3141 3141 3141 3141 3141 3141 3141 3141 3141 3141 3141 3141 3141 3141 3141 3141 3141 3140 3140 3140 3140 3139 3139 3139 3138 3138 3137 3137 3136 3136 3135 3135 3134 3134 3133 3132 3131 3130 3129 3128 3127 3127
3112 3113 3114 3114 3114 3114 3115 3116 3115 3115 3115 3117 3119 3122 3123 3125 3126 3127 3127 3127 3127 3128 3128 3129 3131 3132 3132 3133 3133 3133 3133 3134 3134 3135 3135 3136 3137 3138 3139 3139 3139 3139 3140 3140 3140 3140 3140 3140 3140 3140 3140 3139 3139 3139 3139 3138 3138 3138 3138 3138 3138 3138 3138 3138 3137 3137 3137 3136 3136 3135 3135 3134 3134 3134 3133 3132 3131 3131 3130 3129 3128 3127 3126 3125 3124
3111 3112 3112 3112 3112 3112 3113 3113 3113 3113 3114 3115 3117 3119 3121 3122 3124 3125 3126 3126 3126 3126 3126 3127 3128 3129 3130 3131 3132 3133 3133 3133 3133 3133 3133 3133 3134 3135 3136 3137 3137 3137 3137 3137 3137 3137 3137 3138 3138 3138 3138 3138 3137 3137 3137 3136 3136 3136 3136 3136 3136 3136 3135 3135 3135 3134 3134 3134 3133 3133 3132 3132 3131 3131 3130 3130 3129 3128 3127 3126 3126 3125 3124 3123 3121
3110 3110 3110 3111 3111 3111 3111 3111 3111 3111 3113 3114 3116 3117 3119 3120 3122 3123 3123 3123 3124 3124 3125 3126 3126 3127 3127 3128 3129 3131 3132 3132 3132 3132 3132 3132 3132 3132 3133 3134 3135 3135 3135 3135 3135 3135 3135 3135 3135 3135 3135 3135 3135 3135 3134 3134 3134 3134 3134 3134 3134 3133 3133 3133 3132 3132 3132 3131 3131 3130 3129 3129 3128 3127 3127 3126 3126 3125 3125 3124 3123 3122 3121 3120 3119
3108 3108 3108 3109 3109 3109 3109 3109 3109 3110 3111 3113 3114 3115 3117 3118 3119 3120 3120 3119 3120 3121 3123 3124 3125 3126 3127 3127 3127 3128 3129 3130 3131 3131 3131 3131 3132 3132 3131 3131 3132 3133 3133 3133 3133 3133 3133 3133 3133 3133 3133 3133 3132 3132 3132 3131 3131 3131 3131 3131 3130 3130 3130 3130 3129 3129 3129 3128 3128 3127 3126 3126 3125 3124 3123 3123 3122 3121 3121 3121 3120 3119 3118 3117 3116
3104 3105 3105 3106 3106 3106 3107 3107 3108 3108 3109 3110 3112 3112 3114 3114 3115 3117 3117 3116 3117 3119 3120 3121 3122 3123 3124 3124 3125 3125 3125 3126 3127 3127 3128 3129 3130 3131 3130 3130 3130 3130 3131 3131 3130 3130 3131 3130 3130 3131 3131 3131 3130 3129 3129 3128 3128 3128 3127 3127 3127 3126 3126 3126 3125 3125 3125 3124 3124 3124 3123 3122 3121 3120 3120 3119 3118 3117 3116 3116 3116 3116 3115 3114 3113
3101 3102 3102 3103 3103 3104 3104 3104 3105 3106 3106 3107 3108 3109 3110 3111 3112 3114 3114 3114 3115 3116 3117 3117 3119 3120 3120 3121 3122 3123 3123 3124 3125 3125 3125 3127 3127 3128 3129 3128 3128 3128 3128 3128 3128 3128 3128 3129 3129 3129 3129 3129 3128 3127 3127 3126 3125 3125 3124 3124 3124 3123 3123 3122 3121 3121 3120 3120 3119 3119 3119 3118 3117 3116 3115 3114 3113 3113 3112 3111 3110 3110 3110 3110 3109
3100 3100 3100 3100 3101 3101 3102 3102 3103 3103 3103 3104 3105 3105 3106 3107 3108 3110 3110 3110 3111 3113 3114 3114 3116 3118 3119 3119 3120 3122 3122 3123 3123 3122 3123 3124 3124 3125 3125 3125 3125 3125 3125 3126 3126 3126 3126 3127 3127 3127 3127 3127 3126 3125 3125 3124 3123 3122 3121 3121 3120 3120 3120 3119 3118 3117 3116 3115 3115 3114 3114 3113 3112 3111 3111 3110 3109 3108 3107 3106 3105 3104 3104 3104 3104
3098 3098 3098 3098 3098 3099 3100 3100 3100 3101 3101 3102 3102 3102 3103 3103 3104 3105 3105 3105 3107 3108 3109 3110 3113 3116 3116 3116 3117 3118 3120 3120 3120 3119 3120 3121 3121 3122 3122 3122 3122 3123 3123 3123 3124 3124 3124 3124 3125 3125 3125 3125 3124 3123 3122 3121 3120 3119 3118 3118 3117 3117 3116 3116 3115 3113 3112 3111 3111 3110 3109 3109 3108 3107 3106 3105 3104 3103 3102 3101 3100 3099 3098 3097 3098
3095 3096 3096 3096 3097 3097 3097 3098 3098 3099 3099 3099 3099 3100 3100 3100 3100 3100 3101 3101 3102 3103 3104 3105 3108 3111 3111 3112 3113 3115 3116 3117 3116 3117 3117 3118 3119 3120 3120 3120 3120 3120 3121 3121 3121 3121 3122 3122 3122 3122 3122 3122 3121 3120 3119 3118 3117 3116 3115 3114 3114 3113 3112 3112 3110 3109 3108 3107 3107 3106 3105 3104 3103 3102 3102 3101 3100 3099 3098 3097 3095 3094 3093 3092 3092
3093 3093 3094 3094 3095 3095 3096 3096 3096 3097 3097 3097 3097 3097 3097 3097 3097 3097 3098 3098 3099 3100 3100 3101 3104 3106 3108 3109 3110 3112 3113 3113 3113 3114 3115 3115 3116 3117 3117 3117 3117 3118 3118 3118 3119 3119 3119 3119 3119 3119 3119 3119 3118 3117 3116 3115 3114 3113 3112 3111 3110 3109 3108 3107 3106 3105 3105 3104 3103 3102 3101 3100 3098 3098 3097 3096 3095 3094 3093 3092 3091 3089 3088 3087 3087
3090 3090 3091 3092 3092 3093 3093 3094 3094 3094 3095 3095 3095 3095 3095 3095 3095 3095 3096 3096 3097 3098 3098 3100 3101 3103 3105 3106 3108 3109 3109 3110 3110 3111 3112 3113 3113 3113 3113 3114 3114 3115 3115 3116 3116 3116 3117 3117 3117 3116 3116 3115 3115 3114 3113 3112 3111 3110 3109 3108 3107 3106 3105 3104 3103 3102 3101 3100 3098 3097 3096 3095 3094 3093 3092 3090 3089 3088 3087 3086 3085 3084 3083 3082 3081
3087 3088 3088 3089 3089 3090 3090 3091 3091 3091 3091 3092 3093 3093 3093 3093 3093 3094 3094 3095 3096 3097 3097 3098 3099 3101 3102 3104 3105 3106 3106 3107 3107 3108 3109 3110 3110 3110 3110 3111 3111 3112 3112 3112 3113 3113 3113 3113 3113 3113 3112 3111 3111 3110 3109 3108 3107 3106 3105 3104 3103 3102 3101 3100 3099 3098 3097 3096 3094 3093 3092 3091 3090 3088 3087 3086 3084 3082 3081 3080 3079 3077 3076 3076 3076
3084 3084 3085 3085 3086 3086 3087 3087 3088 3088 3089 3089 3090 3090 3091 3091 3091 3091 3092 3093 3094 3095 3096 3097 3098 3099 3100 3101 3102 3102 3103 3104 3105 3106 3106 3107 3107 3107 3107 3108 3108 3109 3109 3109 3109 3109 3109 3109 3109 3108 3108 3107 3107 3106 3105 3105 3104 3103 3102 3100 3099 3099 3098 3097 3096 3095 3094 3092 3091 3089 3087 3086 3085 3083 3082 3080 3078 3077 3075 3074 3072 3071 3069 3069 3069
3080 3080 3080 3081 3082 3083 3083 3084 3085 3085 3086 3086 3087 3087 3088 3088 3088 3089 3090 3091 3092 3093 3094 3095 3096 3096 3097 3098 3099 3100 3101 3102 3103 3103 3103 3104 3104 3104 3105 3105 3106 3106 3106 3106 3106 3106 3106 3105 3105 3104 3104 3103 3103 3102 3101 3100 3100 3099 3098 3096 3096 3095 3094 3093 3092 3091 3090 3088 3087 3085 3084 3082 3080 3079 3077 3075 3073 3071 3069 3067 3066 3064 3063 3062 3061
3078 3078 3078 3078 3079 3080 3080 3081 3081 3082 3083 3083 3084 3084 3084 3085 3086 3087 3088 3088 3089 3090 3091 3092 3093 3094 3095 3096 3096 3097 3098 3099 3099 3100 3100 3100 3100 3101 3101 3102 3102 3103 3103 3103 3103 3102 3102 3102 3101 3101 3100 3100 3099 3098 3098 3097 3096 3095 3094 3093 3092 3091 3090 3089 3088 3086 3085 3084 3082 3080 3079 3077 3075 3073 3072 3069 3067 3065 3063 3061 3059 3058 3056 3055 3054
3074 3074 3075 3075 3076 3077 3077 3077 3078 3079 3080 3080 3081 3081 3082 3082 3083 3084 3085 3086 3086 3087 3088 3089 3090 3091 3092 3093 3094 3094 3095 3096 3096 3096 3097 3097 3097 3098 3098 3098 3099 3099 3099 3099 3098 3098 3098 3098 3098 3097 3097 3096 3095 3095 3094 3093 3092 3091 3090 3089 3088 3087 3086 3084 3083 3081 3080 3078 3077 3075 3073 3071 3070 3068 3066 3064 3062 3060 3058 3056 3054 3052 3050 3049 3047
3070 3070 3071 3072 3073 3074 3074 3075 3075 3076 3077 3077 3078 3078 3079 3080 3081 3082 3082 3083 3084 3084 3085 3086 3087 3088 3089 3090 3091 3092 3092 3093 3093 3094 3094 3094 3094 3095 3095 3095 3095 3095 3095 3095 3095 3094 3094 3094 3094 3093 3093 3092 3091 3091 3090 3089 3088 3087 3086 3085 3084 3083 3082 3080 3079 3077 3076 3074 3072 3070 3069 3067 3065 3063 3061 3060 3058 3056 3054 3051 3049 3047 3045 3043 3042
3067 3067 3068 3069 3070 3070 3071 3072 3073 3074 3074 3074 3075 3075 3076 3077 3078 3079 3079 3080 3081 3082 3083 3084 3084 3086 3087 3088 3089 3089 3090 3090 3090 3091 3091 3091 3091 3092 3092 3092 3092 3092 3092 3091 3091 3091 3091 3091 3090 3089 3089 3088 3088 3087 3086 3086 3085 3084 3083 3082 3080 3079 3078 3076 3075 3073 3071 3070 3068 3066 3064 3063 3061 3059 3057 3055 3053 3051 3049 3047 3045 3043 3040 3038 3036
3062 3063 3064 3065 3066 3067 3068 3068 3069 3070 3071 3071 3072 3072 3073 3074 3075 3076 3077 3078 3079 3080 3080 3081 3082 3083 3084 3085 3086 3086 3087 3087 3088 3088 3088 3088 3088 3088 3088 3088 3088 3088 3088 3088 3088 3087 3087 3086 3086 3085 3084 3084 3083 3082 3082 3081 3081 3079 3078 3077 3076 3074 3073 3072 3070 3068 3067 3065 3063 3061 3060 3058 3056 3054 3052 3050 3048 3046 3044 3042 3040 3038 3036 3033 3031
3057 3058 3059 3060 3061 3062 3063 3063 3064 3065 3066 3067 3068 3069 3070 3071 3072 3073 3073 3074 3076 3077 3077 3078 3079 3080 3080 3081 3082 3083 3084 3084 3084 3085 3085 3085 3085 3085 3085 3085 3084 3084 3084 3084 3084 3083 3082 3082 3081 3081 3080 3079 3078 3078 3077 3077 3076 3075 3073 3072 3071 3070 3068 3067 3065 3063 3061 3059 3058 3056 3055 3053 3050 3049 3047 3045 3043 3041 3039 3037 3035 3033 3031 3029 3027
3051 3052 3053 3054 3055 3056 3057 3058 3059 3060 3061 3062 3062 3064 3065 3065 3066 3067 3068 3069 3071 3073 3073 3074 3075 3076 3077 3078 3079 3080 3080 3080 3081 3081 3082 3082 3082 3081 3081 3081 3080 3080 3080 3080 3079 3078 3078 3077 3077 3076 3075 3075 3074 3073 3072 3071 3070 3069 3068 3067 3066 3065 3063 3061 3060 3058 3056 3054 3053 3051 3050 3048 3045 3043 3041 3039 3037 3035 3033 3031 3029 3027 3025 3023 3021
3045 3046 3047 3048 3050 3051 3051 3053 3054 3055 3056 3056 3057 3058 3059 3059 3059 3061 3063 3065 3066 3068 3069 3071 3072 3072 3073 3074 3075 3075 3075 3076 3077 3077 3078 3078 3077 3077 3077 3076 3076 3076 3076 3076 3075 3074 3074 3073 3072 3072 3071 3070 3069 3068 3067 3066 3065 3064 3063 3062 3061 3059 3058 3056 3054 3053 3051 3049 3048 3046 3044 3043 3040 3038 3036 3033 3031 3029 3027 3025 3023 3021 3018 3016 3014
3037 3038 3040 3041 3043 3044 3045 3047 3048 3049 3050 3051 3051 3052 3054 3054 3054 3056 3058 3060 3062 3063 3065 3066 3066 3067 3068 3069 3070 3070 3071 3071 3072 3073 3073 3073 3073 3073 3072 3072 3072 3072 3072 3071 3071 3070 3070 3069 3068 3067 3066 3065 3064 3063 3062 3062 3061 3060 3058 3057 3056 3054 3053 3051 3049 3048 3046 3044 3043 3041 3039 3037 3035 3033 3030 3028 3025 3023 3020 3018 3016 3014 3011 3009 3006
3029 3031 3032 3034 3036 3037 3039 3040 3042 3043 3045 3047 3047 3048 3049 3050 3051 3052 3054 3055 3057 3059 3060 3060 3061 3062 3063 3064 3065 3066 3066 3067 3068 3068 3068 3068 3068 3068 3068 3068 3067 3067 3067 3067 3067 3067 3066 3065 3064 3063 3062 3061 3060 3059 3059 3058 3057 3055 3054 3053 3051 3050 3048 3046 3045 3043 3041 3040 3038 3036 3034 3032 3029 3027 3024 3022 3019 3016 3014 3011 3008 3006 3004 3001 2999
3020 3022 3024 3027 3028 3030 3032 3033 3035 3037 3039 3041 3042 3043 3044 3045 3047 3048 3050 3051 3053 3055 3056 3057 3057 3058 3059 3060 3061 3062 3063 3063 3064 3064 3064 3064 3064 3065 3064 3064 3064 3064 3063 3063 3063 3063 3062 3061 3060 3059 3058 3057 3057 3056 3055 3054 3052 3051 3050 3049 3047 3045 3044 3042 3040 3038 3037 3035 3033 3031 3028 3026 3023 3021 3018 3016 3013 3011 3008 3005 3002 2999 2996 2994 2992
3012 3014 3016 3018 3021 3023 3025 3026 3028 3030 3031 3034 3036 3038 3039 3040 3041 3043 3045 3047 3048 3050 3051 3052 3053 3054 3055 3056 3057 3058 3058 3059 3059 3059 3060 3060 3061 3061 3061 3060 3060 3060 3059 3059 3059 3058 3057 3057 3056 3055 3054 3053 3053 3052 3051 3050 3048 3047 3046 3045 3043 3042 3040 3038 3036 3035 3032 3030 3028 3025 3023 3020 3018 3015 3012 3010 3007 3005 3002 2999 2996 2993 2990 2988 2987
3004 3006 3008 3010 3013 3015 3017 3019 3021 3022 3024 3026 3028 3031 3033 3034 3036 3038 3040 3041 3043 3045 3047 3048 3049 3050 3051 3052 3053 3053 3054 3054 3055 3055 3056 3056 3056 3056 3056 3056 3056 3055 3055 3054 3054 3053 3053 3052 3052 3051 3050 3049 3049 3048 3047 3046 3045 3044 3043 3041 3040 3038 3036 3034 3033 3031 3028 3026 3023 3021 3017 3014 3012 3009 3006 3003 3001 2999 2997 2994 2991 2988 2986 2985 2983
2996 2998 3000 3002 3005 3008 3010 3012 3014 3016 3017 3020 3022 3024 3026 3028 3030 3032 3034 3036 3038 3040 3042 3043 3044 3045 3046 3047 3048 3049 3049 3050 3050 3051 3051 3052 3052 3052 3052 3051 3051 3051 3050 3050 3049 3049 3049 3048 3048 3047 3046 3046 3045 3044 3044 3043 3042 3041 3040 3038 3036 3035 3033 3031 3029 3027 3024 3022 3019 3016 3013 3009 3006 3003 3001 2998 2996 2994 2992 2989 2987 2984 2983 2982 2980
2987 2990 2993 2995 2997 3000 3002 3005 3007 3009 3011 3013 3016 3018 3021 3023 3025 3026 3028 3030 3032 3035 3037 3039 3040 3041 3042 3043 3044 3044 3045 3045 3046 3046 3047 3047 3047 3047 3047 3047 3047 3046 3046 3046 3045 3045 3045 3045 3044 3044 3043 3042 3042 3042 3041 3040 3039 3038 3037 3035 3034 3032 3030 3028 3026 3023 3020 3018 3015 3012 3008 3005 3001 2999 2996 2993 2991 2989 2988 2986 2984 2982 2981 2979 2978
2979 2981 2984 2987 2990 2992 2995 2998 3000 3003 3005 3007 3010 3012 3015 3018 3020 3022 3024 3025 3027 3030 3032 3034 3035 3037 3038 3039 3040 3040 3041 3041 3042 3042 3042 3043 3043 3042 3042 3042 3042 3042 3042 3042 3042 3042 3042 3042 3041 3041 3040 3040 3039 3039 3038 3037 3036 3035 3034 3033 3031 3029 3027 3025 3022 3020 3017 3014 3010 3007 3004 3000 2997 2994 2992 2989 2987 2985 2984 2983 2981 2979 2978 2977 2975
2971 2973 2976 2979 2982 2985 2988 2991 2994 2997 3000 3002 3005 3007 3010 3012 3015 3017 3019 3021 3023 3025 3027 3029 3030 3031 3033 3034 3035 3036 3037 3038 3038 3038 3039 3039 3039 3039 3039 3039 3038 3038 3038 3039 3039 3039 3039 3039 3039 3038 3038 3037 3037 3036 3036 3035 3034 3033 3031 3030 3028 3026 3024 3022 3019 3016 3013 3010 3006 3003 2999 2996 2993 2990 2988 2986 2984 2983 2981 2980 2979 2977 2975 2974 2973
2962 2965 2968 2971 2974 2977 2981 2984 2988 2991 2994 2997 3000 3003 3005 3008 3010 3012 3015 3017 3019 3021 3024 3025 3026 3027 3029 3030 3031 3032 3033 3034 3035 3035 3035 3035 3035 3035 3035 3035 3035 3035 3035 3035 3036 3036 3036 3036 3036 3036 3035 3035 3035 3034 3033 3032 3031 3030 3029 3027 3025 3024 3021 3019 3016 3013 3010 3006 3003 2999 2996 2992 2989 2986 2984 2983 2981 2980 2979 2977 2976 2975 2973 2972 2970
2953 2956 2960 2963 2966 2970 2974 2978 2981 2985 2988 2991 2995 2998 3000 3003 3006 3008 3011 3013 3015 3017 3020 3021 3023 3024 3025 3027 3028 3028 3029 3030 3031 3031 3032 3032 3032 3032 3032 3032 3032 3032 3032 3032 3033 3033 3034 3034 3034 3033 3033 3033 3032 3032 3031 3030 3029 3028 3026 3025 3023 3021 3019 3016 3013 3010 3006 3003 2999 2996 2992 2989 2986 2983 2981 2980 2979 2978 2976 2975 2974 2972 2971 2969 2967
2946 2948 2952 2955 2959 2963 2968 2972 2975 2979 2982 2986 2989 2992 2995 2998 3001 3004 3006 3009 3011 3013 3015 3017 3019 3020 3022 3023 3024 3025 3026 3026 3027 3028 3028 3029 3029 3029 3029 3029 3029 3029 3030 3030 3031 3031 3032 3031 3031 3031 3031 3031 3030 3029 3029 3028 3027 3026 3024 3022 3020 3018 3016 3012 3009 3006 3003 3000 2997 2993 2989 2986 2983 2980 2979 2978 2977 2975 2974 2973 2972 2970 2969 2967 2965
2940 2942 2944 2948 2952 2957 2961 2966 2970 2974 2977 2981 2984 2988 2991 2993 2996 2999 3002 3004 3007 3009 3011 3013 3015 3016 3018 3019 3021 3021 3022 3023 3024 3025 3025 3025 3026 3026 3026 3026 3027 3027 3028 3028 3029 3029 3029 3029 3029 3029 3029 3028 3028 3027 3027 3026 3025 3024 3022 3020 3018 3015 3013 3010 3007 3004 3001 2998 2994 2990 2987 2984 2981 2978 2977 2975 2974 2973 2972 2971 2969 2968 2967 2965 2963
2936 2937 2939 2942 2946 2951 2955 2961 2965 2969 2973 2976 2980 2983 2986 2989 2992 2995 2998 3000 3003 3005 3007 3009 3011 3012 3014 3015 3016 3017 3019 3020 3021 3021 3022 3022 3023 3023 3024 3024 3024 3025 3026 3026 3027 3027 3027 3027 3027 3027 3027 3026 3026 3026 3025 3024 3023 3022 3020 3018 3016 3013 3010 3008 3005 3003 2999 2996 2992 2989 2985 2982 2979 2977 2975 2973 2972 2971 2970 2969 2967 2966 2965 2963 2962
2933 2934 2935 2938 2942 2946 2951 2956 2961 2965 2969 2972 2976 2979 2982 2985 2988 2991 2994 2996 2999 3001 3003 3005 3007 3009 3010 3011 3013 3014 3015 3016 3017 3018 3019 3020 3020 3021 3021 3022 3023 3023 3024 3025 3025 3025 3025 3025 3025 3025 3025 3025 3024 3024 3023 3022 3021 3020 3018 3016 3014 3011 3009 3006 3004 3001 2998 2994 2991 2987 2984 2980 2978 2975 2973 2972 2970 2969 2968 2967 2965 2964 2963 2961 2960
2932 2932 2934 2936 2939 2943 2948 2952 2957 2961 2965 2969 2972 2975 2979 2982 2985 2988 2990 2992 2994 2996 2998 3000 3002 3004 3006 3008 3009 3011 3012 3013 3014 3015 3016 3017 3018 3018 3019 3020 3021 3022 3022 3022 3023 3023 3023 3024 3024 3023 3023 3023 3023 3022 3022 3021 3019 3018 3016 3014 3012 3010 3007 3005 3002 3000 2997 2993 2990 2986 2983 2979 2976 2974 2972 2970 2968 2967 2966 2965 2963 2962 2960 2959 2958
2932 2933 2934 2936 2938 2942 2946 2950 2954 2958 2962 2966 2969 2973 2976 2980 2982 2984 2987 2989 2990 2992 2995 2997 2998 3000 3003 3005 3006 3008 3009 3011 3012 3012 3013 3014 3015 3016 3017 3018 3019 3019 3020 3020 3021 3021 3022 3022 3022 3022 3022 3022 3021 3021 3020 3019 3017 3016 3014 3012 3011 3009 3006 3004 3001 2998 2996 2993 2989 2986 2982 2979 2976 2973 2970 2968 2967 2965 2964 2963 2961 2959 2958 2957 2956
2934 2934 2935 2936 2939 2942 2945 2949 2953 2956 2960 2964 2967 2971 2974 2977 2979 2981 2984 2986 2988 2990 2992 2995 2997 2999 3000 3001 3003 3004 3006 3007 3009 3010 3011 3012 3013 3014 3015 3016 3017 3017 3018 3018 3019 3020 3020 3020 3020 3020 3020 3020 3020 3019 3018 3017 3016 3014 3013 3011 3009 3007 3005 3003 3000 2998 2995 2992 2989 2986 2983 2979 2975 2972 2969 2967 2966 2964 2963 2961 2959 2958 2956 2955 2954
2936 2936 2937 2938 2940 2943 2946 2949 2952 2956 2959 2962 2966 2969 2972 2975 2977 2979 2982 2984 2987 2988 2990 2992 2994 2996 2997 2999 3000 3001 3003 3004 3006 3008 3009 3010 3011 3012 3013 3014 3015 3015 3016 3017 3018 3018 3019 3018 3019 3019 3019 3019 3018 3018 3017 3016 3014 3013 3012 3010 3008 3006 3004 3002 2999 2996 2994 2991 2989 2986 2983 2979 2975 2972 2969 2967 2965 2963 2961 2960 2958 2956 2955 2954 2953
2940 2940 2940 2942 2943 2945 2947 2950 2953 2955 2958 2961 2964 2967 2970 2973 2976 2978 2980 2983 2985 2987 2989 2990 2992 2994 2995 2997 2998 2999 3001 3003 3005 3006 3008 3009 3010 3011 3012 3013 3013 3014 3015 3016 3016 3017 3017 3017 3017 3018 3018 3017 3017 3016 3015 3014 3013 3012 3010 3008 3006 3005 3003 3001 2998 2995 2993 2991 2988 2985 2982 2979 2975 2972 2969 2966 2964 2962 2960 2958 2957 2955 2954 2953 2952
2944 2944 2945 2946 2947 2949 2950 2952 2954 2956 2959 2961 2964 2966 2969 2972 2975 2977 2979 2981 2983 2985 2987 2988 2990 2992 2994 2995 2997 2998 3000 3002 3003 3005 3006 3007 3009 3010 3011 3011 3012 3013 3014 3014 3015 3015 3015 3016 3016 3016 3016 3016 3015 3014 3013 3012 3011 3010 3008 3007 3005 3003 3002 3000 2997 2995 2992 2990 2987 2984 2982 2978 2975 2971 2968 2966 2963 2961 2959 2957 2956 2954 2953 2952 2951
2950 2950 2950 2951 2952 2953 2954 2955 2957 2958 2960 2962 2964 2966 2969 2972 2974 2976 2978 2980 2982 2984 2986 2987 2989 2991 2993 2994 2996 2997 2999 3001 3002 3004 3005 3006 3008 3008 3009 3010 3011 3012 3013 3013 3014 3014 3014 3015 3015 3015 3015 3014 3014 3013 3012 3011 3010 3008 3007 3005 3004 3002 3001 2999 2997 2994 2992 2989 2986 2984 2981 2978 2975 2972 2969 2966 2963 2961 2959 2957 2955 2953 2952 2951 2950
2955 2955 2955 2955 2956 2956 2957 2958 2960 2961 2962 2964 2966 2968 2970 2972 2974 2976 2978 2980 2981 2983 2985 2987 2989 2990 2992 2993 2995 2997 2998 3000 3001 3003 3004 3005 3006 3007 3008 3009 3010 3011 3012 3012 3013 3013 3013 3013 3013 3013 3013 3013 3012 3011 3011 3009 3008 3007 3006 3004 3003 3001 3000 2998 2996 2994 2991 2989 2986 2984 2981 2978 2975 2972 2969 2966 2964 2961 2959 2956 2954 2953 2951 2950 2949
2961 2960 2960 2960 2960 2960 2961 2962 2963 2964 2965 2966 2968 2969 2971 2973 2975 2977 2978 2980 2982 2983 2985 2987 2988 2990 2992 2993 2995 2996 2998 2999 3001 3002 3004 3005 3006 3006 3008 3009 3010 3010 3011 3011 3012 3012 3012 3012 3012 3012 3012 3011 3011 3010 3009 3009 3008 3007 3005 3004 3002 3000 2999 2997 2995 2993 2991 2988 2986 2984 2981 2978 2975 2972 2969 2967 2964 2961 2959 2956 2954 2952 2951 2949 2948
2967 2966 2966 2965 2965 2965 2966 2966 2967 2967 2968 2969 2971 2972 2973 2975 2976 2978 2979 2981 2982 2984 2985 2987 2989 2990 2992 2993 2995 2996 2998 2999 3001 3002 3003 3004 3005 3006 3007 3008 3009 3009 3010 3010 3011 3011 3011 3011 3011 3010 3010 3010 3009 3009 3008 3008 3007 3006 3004 3003 3002 3000 2999 2997 2995 2993 2990 2988 2986 2984 2981 2978 2976 2973 2970 2967 2964 2962 2959 2957 2954 2952 2950 2949 2948
2972 2972 2971 2971 2971 2971 2971 2971 2972 2972 2973 2974 2975 2976 2977 2978 2979 2980 2981 2983 2984 2985 2987 2988 2990 2991 2992 2994 2995 2997 2998 2999 3001 3002 3003 3004 3005 3006 3007 3007 3008 3008 3009 3009 3009 3010 3009 3009 3009 3009 3009 3008 3008 3008 3007 3006 3006 3005 3004 3002 3001 3000 2998 2996 2994 2992 2990 2988 2986 2984 2981 2978 2976 2973 2971 2968 2965 2963 2960 2957 2955 2953 2951 2949 2948